EIN4RW EIDW-LEST

Flight info

Callsign EIN4RW
Flight time 2h 6m
Altitude 37000
Route BEPAN4E BEPAN DCT BANBA DCT PAVLO DCT TALIG DCT KORUL DCT KORAV
Aircraft A320/M-SDE3FGHIRWY/LB1

Departure

Time 2026-04-21 16:58
Airport Dublin Airport (EIDW)

Arrival

Time 2026-04-21 19:04
Airport Santiago-Rosalía de Castro Airport (LEST)
Time Latitude Longitude Altitude Speed Heading
2026-04-21 16:26 53.42170 -6.23615 251 ft 0 kts 26°
2026-04-21 16:43 53.42163 -6.23621 250 ft 2 kts 35°
2026-04-21 16:43 53.42153 -6.23639 250 ft 2 kts 57°
2026-04-21 16:43 53.42147 -6.23660 250 ft 2 kts 75°
2026-04-21 16:44 53.42145 -6.23686 250 ft 2 kts 94°
2026-04-21 16:44 53.42147 -6.23709 250 ft 2 kts 112°
2026-04-21 16:44 53.42155 -6.23731 250 ft 2 kts 125°
2026-04-21 16:44 53.42163 -6.23752 250 ft 2 kts 123°
2026-04-21 16:45 53.42171 -6.23771 250 ft 2 kts 127°
2026-04-21 16:45 53.42180 -6.23791 250 ft 2 kts 130°
2026-04-21 16:45 53.42189 -6.23807 250 ft 2 kts 133°
2026-04-21 16:45 53.42199 -6.23825 250 ft 2 kts 130°
2026-04-21 16:46 53.42207 -6.23845 250 ft 2 kts 120°
2026-04-21 16:46 53.42214 -6.23868 250 ft 2 kts 113°
2026-04-21 16:46 53.42220 -6.23891 250 ft 2 kts 116°
2026-04-21 16:46 53.42226 -6.23914 250 ft 2 kts 115°
2026-04-21 16:47 53.42233 -6.23936 250 ft 2 kts 115°
2026-04-21 16:47 53.42238 -6.23955 250 ft 2 kts 117°
2026-04-21 16:47 53.42245 -6.23978 250 ft 2 kts 116°
2026-04-21 16:47 53.42252 -6.24001 250 ft 2 kts 117°
2026-04-21 16:48 53.42258 -6.24023 250 ft 2 kts 116°
2026-04-21 16:48 53.42265 -6.24045 250 ft 2 kts 117°
2026-04-21 16:48 53.42271 -6.24066 250 ft 1 kts 116°
2026-04-21 16:48 53.42277 -6.24084 250 ft 2 kts 131°
2026-04-21 16:49 53.42281 -6.24092 250 ft 2 kts 145°
2026-04-21 16:49 53.42292 -6.24101 250 ft 2 kts 163°
2026-04-21 16:49 53.42306 -6.24104 250 ft 2 kts 188°
2026-04-21 16:49 53.42319 -6.24096 250 ft 2 kts 212°
2026-04-21 16:50 53.42331 -6.24079 250 ft 2 kts 230°
2026-04-21 16:50 53.42339 -6.24065 250 ft 0 kts 224°
2026-04-21 16:51 53.42338 -6.24065 250 ft 0 kts 224°
2026-04-21 16:52 53.42292 -6.24107 250 ft 11 kts 202°
2026-04-21 16:52 53.42220 -6.24162 250 ft 13 kts 212°
2026-04-21 16:52 53.42160 -6.24287 250 ft 14 kts 263°
2026-04-21 16:52 53.42165 -6.24456 250 ft 15 kts 277°
2026-04-21 16:53 53.42177 -6.24639 250 ft 16 kts 275°
2026-04-21 16:53 53.42187 -6.24837 250 ft 16 kts 275°
2026-04-21 16:53 53.42193 -6.24936 250 ft 8 kts 276°
2026-04-21 16:53 53.42199 -6.25059 250 ft 15 kts 275°
2026-04-21 16:54 53.42213 -6.25315 250 ft 28 kts 275°
2026-04-21 16:54 53.42234 -6.25643 250 ft 28 kts 276°
2026-04-21 16:54 53.42252 -6.25968 250 ft 27 kts 276°
2026-04-21 16:54 53.42271 -6.26254 250 ft 27 kts 270°
2026-04-21 16:55 53.42278 -6.26537 250 ft 26 kts 278°
2026-04-21 16:55 53.42295 -6.26845 250 ft 26 kts 276°
2026-04-21 16:55 53.42314 -6.27155 250 ft 26 kts 276°
2026-04-21 16:55 53.42332 -6.27449 250 ft 26 kts 277°
2026-04-21 16:56 53.42355 -6.27753 250 ft 25 kts 268°
2026-04-21 16:56 53.42359 -6.28056 250 ft 25 kts 275°
2026-04-21 16:56 53.42381 -6.28360 250 ft 25 kts 278°
2026-04-21 16:56 53.42397 -6.28658 250 ft 25 kts 276°
2026-04-21 16:57 53.42411 -6.28954 250 ft 19 kts 269°
2026-04-21 16:57 53.42359 -6.29069 250 ft 9 kts 203°
2026-04-21 16:57 53.42290 -6.29069 250 ft 10 kts 168°
2026-04-21 16:57 53.42242 -6.28988 250 ft 10 kts 93°
2026-04-21 16:58 53.42223 -6.28653 251 ft 61 kts 97°
2026-04-21 16:58 53.42177 -6.27802 251 ft 116 kts 95°
2026-04-21 16:58 53.42092 -6.26163 486 ft 149 kts 95°
2026-04-21 16:58 53.42019 -6.24483 1107 ft 151 kts 95°
2026-04-21 16:59 53.41934 -6.22742 1819 ft 150 kts 95°
2026-04-21 16:59 53.41824 -6.20990 2402 ft 154 kts 97°
2026-04-21 16:59 53.41716 -6.19178 2983 ft 158 kts 97°
2026-04-21 16:59 53.41518 -6.17339 3566 ft 160 kts 117°
2026-04-21 17:00 53.40602 -6.16146 3936 ft 183 kts 163°
2026-04-21 17:00 53.39251 -6.16169 4354 ft 206 kts 182°
2026-04-21 17:00 53.38284 -6.16331 4688 ft 217 kts 181°
2026-04-21 17:00 53.36166 -6.16646 5362 ft 241 kts 182°
2026-04-21 17:01 53.34434 -6.16877 6019 ft 253 kts 182°
2026-04-21 17:01 53.32688 -6.17100 6894 ft 255 kts 182°
2026-04-21 17:01 53.30972 -6.17312 7761 ft 256 kts 182°
2026-04-21 17:01 53.29230 -6.17524 8588 ft 258 kts 183°
2026-04-21 17:02 53.27501 -6.17721 9383 ft 261 kts 185°
2026-04-21 17:02 53.25793 -6.17922 10117 ft 264 kts 186°
2026-04-21 17:02 53.24017 -6.18136 10790 ft 269 kts 186°
2026-04-21 17:02 53.22267 -6.18351 11156 ft 285 kts 187°
2026-04-21 17:03 53.20425 -6.18579 11469 ft 301 kts 187°
2026-04-21 17:03 53.18518 -6.18811 11905 ft 313 kts 187°
2026-04-21 17:03 53.16489 -6.19052 12578 ft 317 kts 187°
2026-04-21 17:03 53.14805 -6.19250 13180 ft 318 kts 188°
2026-04-21 17:04 53.13075 -6.19452 13787 ft 319 kts 188°
2026-04-21 17:04 53.11090 -6.19685 14453 ft 321 kts 188°
2026-04-21 17:04 53.09191 -6.19905 15088 ft 322 kts 189°
2026-04-21 17:04 53.07204 -6.20135 15750 ft 322 kts 189°
2026-04-21 17:05 53.05272 -6.20359 16373 ft 323 kts 190°
2026-04-21 17:05 53.03385 -6.20578 17085 ft 319 kts 191°
2026-04-21 17:05 53.01456 -6.20794 18022 ft 309 kts 191°
2026-04-21 17:05 52.99512 -6.21010 18980 ft 297 kts 192°
2026-04-21 17:06 52.97871 -6.21192 19784 ft 287 kts 193°
2026-04-21 17:06 52.96543 -6.21341 20430 ft 278 kts 194°
2026-04-21 17:06 52.94845 -6.21532 21256 ft 266 kts 195°
2026-04-21 17:06 52.93278 -6.21709 22011 ft 254 kts 195°
2026-04-21 17:07 52.91837 -6.21874 22637 ft 245 kts 196°
2026-04-21 17:07 52.90309 -6.22058 23073 ft 244 kts 197°
2026-04-21 17:07 52.88880 -6.22235 23400 ft 246 kts 197°
2026-04-21 17:07 52.87367 -6.22417 23748 ft 247 kts 197°
2026-04-21 17:08 52.85790 -6.22604 24105 ft 249 kts 197°
2026-04-21 17:08 52.84137 -6.22798 24471 ft 250 kts 197°
2026-04-21 17:08 52.82478 -6.22992 24828 ft 252 kts 197°
2026-04-21 17:08 52.80775 -6.23191 25184 ft 253 kts 197°
2026-04-21 17:09 52.77648 -6.23553 25819 ft 256 kts 198°
2026-04-21 17:09 52.76090 -6.23733 26120 ft 258 kts 198°
2026-04-21 17:09 52.74416 -6.23927 26435 ft 259 kts 198°
2026-04-21 17:10 52.72746 -6.24120 26748 ft 260 kts 198°
2026-04-21 17:10 52.71037 -6.24317 27061 ft 262 kts 198°
2026-04-21 17:10 52.69639 -6.24477 27309 ft 263 kts 198°
2026-04-21 17:10 52.68240 -6.24639 27553 ft 264 kts 198°
2026-04-21 17:11 52.66812 -6.24803 27799 ft 265 kts 198°
2026-04-21 17:11 52.65260 -6.24980 28055 ft 267 kts 198°
2026-04-21 17:11 52.63825 -6.25145 28288 ft 268 kts 198°
2026-04-21 17:11 52.62363 -6.25313 28526 ft 269 kts 198°
2026-04-21 17:12 52.60602 -6.25515 28811 ft 270 kts 198°
2026-04-21 17:12 52.58904 -6.25709 29076 ft 271 kts 198°
2026-04-21 17:12 52.57052 -6.25920 29348 ft 273 kts 199°
2026-04-21 17:12 52.55118 -6.26122 29626 ft 276 kts 197°
2026-04-21 17:13 52.53155 -6.26150 29900 ft 283 kts 194°
2026-04-21 17:13 52.51144 -6.25961 30168 ft 290 kts 191°
2026-04-21 17:13 52.49126 -6.25553 30421 ft 295 kts 188°
2026-04-21 17:13 52.47059 -6.25063 30679 ft 297 kts 188°
2026-04-21 17:14 52.45140 -6.24610 30910 ft 298 kts 188°
2026-04-21 17:14 52.43159 -6.24140 31139 ft 300 kts 188°
2026-04-21 17:14 52.41221 -6.23681 31357 ft 301 kts 188°
2026-04-21 17:14 52.39276 -6.23219 31567 ft 303 kts 188°
2026-04-21 17:15 52.37401 -6.22775 31767 ft 304 kts 189°
2026-04-21 17:15 52.35418 -6.22305 31976 ft 305 kts 189°
2026-04-21 17:15 52.33892 -6.21944 32133 ft 306 kts 189°
2026-04-21 17:15 52.32314 -6.21570 32291 ft 307 kts 189°
2026-04-21 17:16 52.30685 -6.21185 32450 ft 309 kts 189°
2026-04-21 17:16 52.28605 -6.20692 32653 ft 310 kts 189°
2026-04-21 17:16 52.26456 -6.20184 32858 ft 311 kts 189°
2026-04-21 17:16 52.24273 -6.19669 33068 ft 312 kts 189°
2026-04-21 17:17 52.22085 -6.19152 33271 ft 314 kts 189°
2026-04-21 17:17 52.19888 -6.18634 33461 ft 315 kts 189°
2026-04-21 17:17 52.17705 -6.18120 33655 ft 316 kts 189°
2026-04-21 17:17 52.15496 -6.17600 33841 ft 317 kts 189°
2026-04-21 17:18 52.13285 -6.17080 34019 ft 319 kts 189°
2026-04-21 17:18 52.11078 -6.16562 34193 ft 320 kts 189°
2026-04-21 17:18 52.08890 -6.16049 34355 ft 321 kts 189°
2026-04-21 17:18 52.06822 -6.15565 34493 ft 323 kts 189°
2026-04-21 17:19 52.04577 -6.15041 34649 ft 324 kts 189°
2026-04-21 17:19 52.02374 -6.14525 34811 ft 325 kts 189°
2026-04-21 17:19 52.00129 -6.13999 34962 ft 326 kts 189°
2026-04-21 17:19 51.98045 -6.13513 35100 ft 327 kts 189°
2026-04-21 17:20 51.95768 -6.12981 35223 ft 329 kts 188°
2026-04-21 17:20 51.93427 -6.12442 35230 ft 335 kts 188°
2026-04-21 17:20 51.88834 -6.11383 35238 ft 345 kts 188°
2026-04-21 17:21 51.83902 -6.10240 35236 ft 360 kts 187°
2026-04-21 17:21 51.78827 -6.09076 35236 ft 379 kts 187°
2026-04-21 17:22 51.73511 -6.07852 35235 ft 395 kts 186°
2026-04-21 17:22 51.67957 -6.06559 35235 ft 404 kts 186°
2026-04-21 17:23 51.62236 -6.05236 35234 ft 412 kts 186°
2026-04-21 17:23 51.56484 -6.03908 35235 ft 416 kts 186°
2026-04-21 17:24 51.50693 -6.02571 35234 ft 416 kts 186°
2026-04-21 17:24 51.44912 -6.01244 35221 ft 417 kts 186°
2026-04-21 17:25 51.39120 -5.99922 35186 ft 416 kts 186°
2026-04-21 17:25 51.33342 -5.98608 35143 ft 416 kts 186°
2026-04-21 17:26 51.27548 -5.97294 35116 ft 417 kts 186°
2026-04-21 17:26 51.21780 -5.95989 35107 ft 417 kts 186°
2026-04-21 17:27 51.15997 -5.94683 35104 ft 417 kts 186°
2026-04-21 17:27 51.10209 -5.93378 35103 ft 417 kts 186°
2026-04-21 17:28 51.04418 -5.92074 35101 ft 417 kts 186°
2026-04-21 17:28 50.98639 -5.90772 35099 ft 417 kts 186°
2026-04-21 17:29 50.92910 -5.89662 35097 ft 410 kts 190°
2026-04-21 17:29 50.87206 -5.89228 35098 ft 406 kts 192°
2026-04-21 17:30 50.81530 -5.88829 35098 ft 405 kts 192°
2026-04-21 17:30 50.75833 -5.88434 35098 ft 405 kts 192°
2026-04-21 17:31 50.70162 -5.88046 35098 ft 405 kts 192°
2026-04-21 17:31 50.64458 -5.87658 35098 ft 405 kts 192°
2026-04-21 17:32 50.58792 -5.87275 35098 ft 405 kts 192°
2026-04-21 17:32 50.53118 -5.86892 35098 ft 405 kts 192°
2026-04-21 17:33 50.47464 -5.86512 35098 ft 405 kts 192°
2026-04-21 17:33 50.41750 -5.86128 35098 ft 405 kts 192°
2026-04-21 17:34 50.36074 -5.85748 35098 ft 405 kts 192°
2026-04-21 17:34 50.30419 -5.85370 35098 ft 405 kts 192°
2026-04-21 17:35 50.24712 -5.84990 35098 ft 406 kts 192°
2026-04-21 17:35 50.19045 -5.84614 35098 ft 406 kts 192°
2026-04-21 17:36 50.13361 -5.84236 35098 ft 406 kts 192°
2026-04-21 17:36 50.07685 -5.83861 35098 ft 406 kts 192°
2026-04-21 17:37 50.01976 -5.83483 35097 ft 406 kts 192°
2026-04-21 17:37 49.96288 -5.83108 35095 ft 406 kts 192°
2026-04-21 17:38 49.90593 -5.82733 35092 ft 406 kts 192°
2026-04-21 17:38 49.84919 -5.82354 35091 ft 406 kts 192°
2026-04-21 17:39 49.79197 -5.81972 35091 ft 406 kts 192°
2026-04-21 17:39 49.73534 -5.81598 35091 ft 406 kts 192°
2026-04-21 17:40 49.67819 -5.81223 35088 ft 405 kts 192°
2026-04-21 17:40 49.62154 -5.80851 35081 ft 405 kts 192°
2026-04-21 17:41 49.56488 -5.80519 35078 ft 402 kts 194°
2026-04-21 17:41 49.50906 -5.80795 35076 ft 393 kts 198°
2026-04-21 17:42 49.45513 -5.81831 35076 ft 384 kts 203°
2026-04-21 17:42 49.40207 -5.83221 35077 ft 384 kts 202°
2026-04-21 17:43 49.34875 -5.84587 35082 ft 384 kts 202°
2026-04-21 17:43 49.29579 -5.85951 35088 ft 384 kts 203°
2026-04-21 17:44 49.24235 -5.87331 35093 ft 384 kts 203°
2026-04-21 17:44 49.18897 -5.88708 35095 ft 384 kts 203°
2026-04-21 17:45 49.13596 -5.90074 35096 ft 384 kts 203°
2026-04-21 17:45 49.08250 -5.91455 35094 ft 387 kts 202°
2026-04-21 17:46 49.02842 -5.92857 35093 ft 394 kts 202°
2026-04-21 17:46 48.97330 -5.94277 35094 ft 401 kts 201°
2026-04-21 17:47 48.91768 -5.95695 35095 ft 405 kts 200°
2026-04-21 17:47 48.86145 -5.97109 35096 ft 405 kts 200°
2026-04-21 17:48 48.80536 -5.98516 35095 ft 405 kts 200°
2026-04-21 17:48 48.74956 -5.99923 35096 ft 405 kts 200°
2026-04-21 17:49 48.69381 -6.01332 35096 ft 405 kts 200°
2026-04-21 17:49 48.63779 -6.02745 35096 ft 406 kts 200°
2026-04-21 17:50 48.58142 -6.04166 35096 ft 404 kts 200°
2026-04-21 17:50 48.52485 -6.05589 35096 ft 405 kts 200°
2026-04-21 17:51 48.46835 -6.07008 35095 ft 405 kts 200°
2026-04-21 17:51 48.41204 -6.08418 35088 ft 405 kts 200°
2026-04-21 17:52 48.35571 -6.09826 35073 ft 406 kts 200°
2026-04-21 17:52 48.29929 -6.11233 35055 ft 405 kts 200°
2026-04-21 17:53 48.24251 -6.12646 35047 ft 406 kts 200°
2026-04-21 17:53 48.18614 -6.14045 35046 ft 405 kts 200°
2026-04-21 17:54 48.12983 -6.15440 35050 ft 405 kts 200°
2026-04-21 17:54 48.07345 -6.16833 35043 ft 405 kts 200°
2026-04-21 17:55 48.01897 -6.18176 35028 ft 405 kts 200°
2026-04-21 17:55 47.96249 -6.19567 35008 ft 405 kts 200°
2026-04-21 17:56 47.90619 -6.20950 34995 ft 405 kts 200°
2026-04-21 17:56 47.85090 -6.22293 34991 ft 406 kts 200°
2026-04-21 17:57 47.79459 -6.23658 34988 ft 405 kts 200°
2026-04-21 17:57 47.73794 -6.25033 34989 ft 406 kts 200°
2026-04-21 17:58 47.68143 -6.26406 34988 ft 407 kts 200°
2026-04-21 17:58 47.62477 -6.27781 34988 ft 407 kts 200°
2026-04-21 17:59 47.56792 -6.29158 34988 ft 406 kts 200°
2026-04-21 17:59 47.51134 -6.30526 34988 ft 406 kts 200°
2026-04-21 18:00 47.45456 -6.31897 34989 ft 406 kts 200°
2026-04-21 18:00 47.39803 -6.33257 34988 ft 406 kts 200°
2026-04-21 18:01 47.34108 -6.34626 34988 ft 406 kts 200°
2026-04-21 18:01 47.28469 -6.35977 34988 ft 406 kts 200°
2026-04-21 18:02 47.22796 -6.37333 34988 ft 406 kts 200°
2026-04-21 18:02 47.17243 -6.38659 34988 ft 405 kts 200°
2026-04-21 18:03 47.11669 -6.39987 34989 ft 406 kts 200°
2026-04-21 18:03 47.06020 -6.41329 34988 ft 405 kts 200°
2026-04-21 18:04 47.00361 -6.42677 34986 ft 409 kts 200°
2026-04-21 18:04 46.94631 -6.44048 34986 ft 416 kts 199°
2026-04-21 18:05 46.88779 -6.45437 34987 ft 424 kts 198°
2026-04-21 18:05 46.82839 -6.46817 34988 ft 431 kts 198°
2026-04-21 18:06 46.76840 -6.48205 34989 ft 431 kts 197°
2026-04-21 18:06 46.70844 -6.49599 34988 ft 431 kts 198°
2026-04-21 18:07 46.64799 -6.51010 34988 ft 431 kts 198°
2026-04-21 18:07 46.58805 -6.52407 34988 ft 431 kts 198°
2026-04-21 18:08 46.52831 -6.53798 34988 ft 431 kts 198°
2026-04-21 18:08 46.46799 -6.55200 34976 ft 431 kts 198°
2026-04-21 18:09 46.40799 -6.56591 34950 ft 431 kts 198°
2026-04-21 18:09 46.34727 -6.57996 34906 ft 431 kts 198°
2026-04-21 18:10 46.28720 -6.59383 34846 ft 431 kts 198°
2026-04-21 18:10 46.22678 -6.60774 34786 ft 431 kts 198°
2026-04-21 18:11 46.16682 -6.62152 34745 ft 431 kts 198°
2026-04-21 18:11 46.10701 -6.63524 34726 ft 433 kts 198°
2026-04-21 18:12 46.04660 -6.64907 34718 ft 432 kts 198°
2026-04-21 18:12 45.98671 -6.66295 34715 ft 433 kts 197°
2026-04-21 18:13 45.92599 -6.67698 34713 ft 433 kts 197°
2026-04-21 18:13 45.86550 -6.69076 34714 ft 433 kts 197°
2026-04-21 18:14 45.77474 -6.71122 34714 ft 433 kts 197°
2026-04-21 18:15 45.71445 -6.72482 34714 ft 433 kts 197°
2026-04-21 18:15 45.65426 -6.73839 34714 ft 433 kts 197°
2026-04-21 18:16 45.59425 -6.75188 34714 ft 433 kts 197°
2026-04-21 18:16 45.53421 -6.76536 34714 ft 432 kts 197°
2026-04-21 18:17 45.47356 -6.77894 34715 ft 433 kts 197°
2026-04-21 18:17 45.41390 -6.79228 34714 ft 433 kts 197°
2026-04-21 18:18 45.35365 -6.80571 34714 ft 433 kts 197°
2026-04-21 18:18 45.29809 -6.81808 34714 ft 433 kts 197°
2026-04-21 18:19 45.23980 -6.83101 34714 ft 433 kts 197°
2026-04-21 18:19 45.17903 -6.84448 34714 ft 433 kts 197°
2026-04-21 18:20 45.11922 -6.85769 34714 ft 433 kts 197°
2026-04-21 18:20 45.05866 -6.87115 34713 ft 436 kts 196°
2026-04-21 18:21 44.99794 -6.88453 34713 ft 442 kts 195°
2026-04-21 18:21 44.93597 -6.89815 34713 ft 446 kts 195°
2026-04-21 18:22 44.92558 -6.90069 34713 ft 445 kts 195°
2026-04-21 18:22 44.82211 -6.94169 34715 ft 437 kts 206°
2026-04-21 18:23 44.76623 -6.97733 34714 ft 434 kts 212°
2026-04-21 18:23 44.71301 -7.01985 34714 ft 431 kts 214°
2026-04-21 18:24 44.66016 -7.06283 34714 ft 430 kts 214°
2026-04-21 18:24 44.60779 -7.10535 34714 ft 429 kts 214°
2026-04-21 18:25 44.55533 -7.14788 34715 ft 429 kts 214°
2026-04-21 18:25 44.50569 -7.18804 34714 ft 429 kts 214°
2026-04-21 18:26 44.45729 -7.22713 34714 ft 428 kts 214°
2026-04-21 18:26 44.41195 -7.26367 34712 ft 428 kts 214°
2026-04-21 18:27 44.35972 -7.30569 34709 ft 428 kts 214°
2026-04-21 18:27 44.30709 -7.34795 34462 ft 429 kts 214°
2026-04-21 18:27 44.28058 -7.36921 34001 ft 430 kts 214°
2026-04-21 18:28 44.25561 -7.38921 33339 ft 431 kts 214°
2026-04-21 18:28 44.22918 -7.41036 32596 ft 433 kts 214°
2026-04-21 18:28 44.20273 -7.43150 31832 ft 435 kts 214°
2026-04-21 18:28 44.17586 -7.45297 31047 ft 438 kts 214°
2026-04-21 18:29 44.14926 -7.47420 30259 ft 440 kts 213°
2026-04-21 18:29 44.12226 -7.49572 29443 ft 442 kts 214°
2026-04-21 18:29 44.09512 -7.51733 28606 ft 445 kts 214°
2026-04-21 18:29 44.06806 -7.53885 27953 ft 444 kts 213°
2026-04-21 18:30 44.04095 -7.56035 27325 ft 433 kts 214°
2026-04-21 18:30 44.01524 -7.58070 26769 ft 424 kts 214°
2026-04-21 18:30 43.98937 -7.60116 26239 ft 414 kts 214°
2026-04-21 18:30 43.96466 -7.62070 25725 ft 406 kts 214°
2026-04-21 18:31 43.94015 -7.64007 25224 ft 398 kts 214°
2026-04-21 18:31 43.91572 -7.65938 24691 ft 392 kts 213°
2026-04-21 18:31 43.89209 -7.67815 24329 ft 390 kts 213°
2026-04-21 18:31 43.86832 -7.69693 24147 ft 392 kts 213°
2026-04-21 18:32 43.84440 -7.71575 23869 ft 388 kts 213°
2026-04-21 18:32 43.82110 -7.73406 23121 ft 389 kts 213°
2026-04-21 18:32 43.79720 -7.75287 22349 ft 394 kts 213°
2026-04-21 18:32 43.77302 -7.77189 21755 ft 399 kts 213°
2026-04-21 18:33 43.74858 -7.79107 21091 ft 400 kts 213°
2026-04-21 18:33 43.72417 -7.81020 20432 ft 402 kts 213°
2026-04-21 18:33 43.69978 -7.82930 19776 ft 403 kts 213°
2026-04-21 18:33 43.67543 -7.84836 19124 ft 405 kts 213°
2026-04-21 18:34 43.65108 -7.86741 18477 ft 407 kts 213°
2026-04-21 18:34 43.62621 -7.88687 17815 ft 408 kts 213°
2026-04-21 18:34 43.60166 -7.90607 17165 ft 410 kts 213°
2026-04-21 18:34 43.57686 -7.92543 16509 ft 408 kts 213°
2026-04-21 18:35 43.55313 -7.94389 15876 ft 400 kts 213°
2026-04-21 18:35 43.52903 -7.96263 15220 ft 393 kts 213°
2026-04-21 18:35 43.50518 -7.98114 14560 ft 386 kts 213°
2026-04-21 18:35 43.48267 -8.00044 13898 ft 376 kts 221°
2026-04-21 18:36 43.46334 -8.02321 13280 ft 351 kts 226°
2026-04-21 18:36 43.44608 -8.04520 12728 ft 325 kts 226°
2026-04-21 18:36 43.42992 -8.06576 12172 ft 305 kts 226°
2026-04-21 18:36 43.41441 -8.08530 11622 ft 303 kts 226°
2026-04-21 18:37 43.39906 -8.10438 11068 ft 291 kts 226°
2026-04-21 18:37 43.38427 -8.12257 10511 ft 278 kts 226°
2026-04-21 18:37 43.37120 -8.13857 9998 ft 268 kts 226°
2026-04-21 18:37 43.35875 -8.15377 9499 ft 263 kts 227°
2026-04-21 18:38 43.34634 -8.16895 8999 ft 267 kts 227°
2026-04-21 18:38 43.33332 -8.18486 8526 ft 270 kts 226°
2026-04-21 18:38 43.31915 -8.20212 8121 ft 270 kts 226°
2026-04-21 18:38 43.30512 -8.21915 7726 ft 270 kts 226°
2026-04-21 18:39 43.29085 -8.23644 7369 ft 268 kts 226°
2026-04-21 18:39 43.27681 -8.25344 7014 ft 266 kts 226°
2026-04-21 18:39 43.26286 -8.27029 6661 ft 265 kts 226°
2026-04-21 18:39 43.24886 -8.28722 6293 ft 264 kts 225°
2026-04-21 18:40 43.23502 -8.30395 5915 ft 264 kts 225°
2026-04-21 18:40 43.22113 -8.32072 5536 ft 264 kts 225°
2026-04-21 18:40 43.20739 -8.33729 5161 ft 264 kts 225°
2026-04-21 18:40 43.19351 -8.35402 4782 ft 264 kts 224°
2026-04-21 18:41 43.17976 -8.37057 4408 ft 264 kts 224°
2026-04-21 18:41 43.16577 -8.38738 4027 ft 263 kts 224°
2026-04-21 18:41 43.15191 -8.40407 3648 ft 263 kts 224°
2026-04-21 18:41 43.13814 -8.42061 3310 ft 260 kts 224°
2026-04-21 18:42 43.12473 -8.43668 2996 ft 247 kts 224°
2026-04-21 18:42 43.11237 -8.45140 2922 ft 221 kts 224°
2026-04-21 18:42 43.10115 -8.46478 2912 ft 201 kts 225°
2026-04-21 18:42 43.09052 -8.47718 2920 ft 201 kts 218°
2026-04-21 18:43 43.07657 -8.48241 2908 ft 211 kts 176°
2026-04-21 18:43 43.06226 -8.47668 2937 ft 213 kts 163°
2026-04-21 18:43 43.04871 -8.46949 3018 ft 195 kts 165°
2026-04-21 18:43 43.03626 -8.46357 3398 ft 189 kts 167°
2026-04-21 18:44 43.02415 -8.45824 3578 ft 170 kts 169°
2026-04-21 18:44 43.01292 -8.45396 3353 ft 165 kts 171°
2026-04-21 18:44 43.00195 -8.45027 3009 ft 160 kts 172°
2026-04-21 18:44 42.99083 -8.44661 2805 ft 163 kts 173°
2026-04-21 18:45 42.98021 -8.44308 2583 ft 150 kts 173°
2026-04-21 18:45 42.97061 -8.43982 2365 ft 137 kts 173°
2026-04-21 18:45 42.96135 -8.43674 2211 ft 139 kts 175°
2026-04-21 18:45 42.95156 -8.43356 2040 ft 142 kts 170°
2026-04-21 18:46 42.94188 -8.43027 1826 ft 141 kts 172°
2026-04-21 18:46 42.93241 -8.42711 1638 ft 139 kts 172°
2026-04-21 18:46 42.92274 -8.42391 1438 ft 142 kts 172°
2026-04-21 18:46 42.91288 -8.42070 1233 ft 141 kts 172°
2026-04-21 18:47 42.90394 -8.41758 1190 ft 118 kts 169°
2026-04-21 18:47 42.89661 -8.41507 1222 ft 117 kts 172°
2026-04-21 18:47 42.88789 -8.41243 1523 ft 148 kts 168°
2026-04-21 18:47 42.87711 -8.40797 2033 ft 177 kts 168°
2026-04-21 18:48 42.86429 -8.40294 2608 ft 205 kts 169°
2026-04-21 18:48 42.85104 -8.39834 3307 ft 193 kts 166°
2026-04-21 18:48 42.83905 -8.38840 3789 ft 209 kts 143°
2026-04-21 18:48 42.82870 -8.37495 3973 ft 215 kts 138°
2026-04-21 18:49 42.81973 -8.36233 3973 ft 213 kts 134°
2026-04-21 18:49 42.81279 -8.34660 3981 ft 216 kts 114°
2026-04-21 18:49 42.80677 -8.30698 3976 ft 221 kts 90°
2026-04-21 18:50 42.80752 -8.28798 3977 ft 218 kts 86°
2026-04-21 18:50 42.81093 -8.26849 3973 ft 219 kts 60°
2026-04-21 18:50 42.82030 -8.25212 3979 ft 219 kts 39°
2026-04-21 18:50 42.83299 -8.24243 3984 ft 211 kts 14°
2026-04-21 18:51 42.84587 -8.23767 3979 ft 215 kts 10°
2026-04-21 18:51 42.86050 -8.23366 3983 ft 217 kts
2026-04-21 18:51 42.87372 -8.23027 3979 ft 212 kts
2026-04-21 18:51 42.88697 -8.22749 3978 ft 211 kts
2026-04-21 18:52 42.90103 -8.22623 3982 ft 212 kts 359°
2026-04-21 18:52 42.91112 -8.22568 3980 ft 211 kts 358°
2026-04-21 18:52 42.94316 -8.22798 3984 ft 211 kts 344°
2026-04-21 18:53 42.95224 -8.23043 3975 ft 206 kts 342°
2026-04-21 18:53 42.98560 -8.24421 3980 ft 211 kts 338°
2026-04-21 18:53 42.99982 -8.25054 3980 ft 210 kts 337°
2026-04-21 18:54 43.01367 -8.25665 3981 ft 213 kts 337°
2026-04-21 18:54 43.02788 -8.26300 3975 ft 213 kts 337°
2026-04-21 18:54 43.04051 -8.26861 3988 ft 214 kts 337°
2026-04-21 18:54 43.05257 -8.27386 3980 ft 206 kts 337°
2026-04-21 18:55 43.06089 -8.27747 3981 ft 209 kts 337°
2026-04-21 18:55 43.07874 -8.28633 3963 ft 199 kts 322°
2026-04-21 18:55 43.08659 -8.30018 3986 ft 188 kts 285°
2026-04-21 18:55 43.08797 -8.31624 3857 ft 190 kts 271°
2026-04-21 18:56 43.08778 -8.33255 3594 ft 191 kts 268°
2026-04-21 18:56 43.08750 -8.34859 3489 ft 182 kts 269°
2026-04-21 18:56 43.08743 -8.36070 3472 ft 173 kts 271°
2026-04-21 18:56 43.08744 -8.37517 3474 ft 167 kts 270°
2026-04-21 18:57 43.08751 -8.38967 3475 ft 169 kts 270°
2026-04-21 18:57 43.08762 -8.40434 3478 ft 169 kts 271°
2026-04-21 18:57 43.08772 -8.41830 3470 ft 169 kts 272°
2026-04-21 18:57 43.08787 -8.43250 3476 ft 169 kts 273°
2026-04-21 18:58 43.08811 -8.44587 3474 ft 169 kts 271°
2026-04-21 18:58 43.08825 -8.46096 3474 ft 168 kts 271°
2026-04-21 18:58 43.08646 -8.47410 3451 ft 172 kts 242°
2026-04-21 18:58 43.07763 -8.48287 3450 ft 176 kts 194°
2026-04-21 18:59 43.06755 -8.48073 3511 ft 175 kts 165°
2026-04-21 18:59 43.05782 -8.47490 3473 ft 168 kts 162°
2026-04-21 18:59 43.04912 -8.46966 3482 ft 166 kts 164°
2026-04-21 18:59 43.03964 -8.46471 3479 ft 156 kts 167°
2026-04-21 19:00 43.03131 -8.46093 3434 ft 136 kts 169°
2026-04-21 19:00 43.02253 -8.45747 3424 ft 137 kts 171°
2026-04-21 19:00 43.01340 -8.45424 3238 ft 137 kts 173°
2026-04-21 19:00 43.00547 -8.45154 3094 ft 134 kts 172°
2026-04-21 19:01 42.99717 -8.44873 2936 ft 134 kts 173°
2026-04-21 19:01 42.98885 -8.44598 2751 ft 134 kts 173°
2026-04-21 19:01 42.98076 -8.44328 2595 ft 136 kts 174°
2026-04-21 19:01 42.97258 -8.44052 2434 ft 135 kts 175°
2026-04-21 19:02 42.96411 -8.43772 2272 ft 140 kts 173°
2026-04-21 19:02 42.95552 -8.43485 2090 ft 133 kts 172°
2026-04-21 19:02 42.94727 -8.43213 1959 ft 149 kts 171°
2026-04-21 19:02 42.93722 -8.42873 1756 ft 140 kts 173°
2026-04-21 19:03 42.92800 -8.42553 1527 ft 135 kts 174°
2026-04-21 19:03 42.91843 -8.42239 1333 ft 141 kts 173°
2026-04-21 19:03 42.90912 -8.41940 1187 ft 130 kts 173°
2026-04-21 19:03 42.90130 -8.41682 1194 ft 91 kts 167°
2026-04-21 19:04 42.89616 -8.41509 1204 ft 69 kts 168°
2026-04-21 19:04 42.89175 -8.41358 1210 ft 62 kts 168°
2026-04-21 19:04 42.88814 -8.41238 1207 ft 50 kts 167°
2026-04-21 19:04 42.88535 -8.41141 1197 ft 28 kts 167°
2026-04-21 19:05 42.88382 -8.41178 1193 ft 21 kts 246°
2026-04-21 19:05 42.88378 -8.41303 1203 ft 14 kts 307°
2026-04-21 19:05 42.88442 -8.41348 1211 ft 9 kts 347°
2026-04-21 19:05 42.88573 -8.41391 1217 ft 29 kts 346°
2026-04-21 19:06 42.88792 -8.41463 1220 ft 32 kts 348°
2026-04-21 19:06 42.89010 -8.41538 1219 ft 31 kts 346°
2026-04-21 19:06 42.89238 -8.41614 1214 ft 33 kts 345°
2026-04-21 19:06 42.89424 -8.41678 1211 ft 17 kts 346°
2026-04-21 19:07 42.89459 -8.41756 1208 ft 11 kts 261°
2026-04-21 19:07 42.89435 -8.41878 1205 ft 15 kts 253°
2026-04-21 19:07 42.89383 -8.42027 1196 ft 11 kts 207°
2026-04-21 19:07 42.89317 -8.42016 1198 ft 9 kts 166°
2026-04-21 19:08 42.89285 -8.42007 1199 ft 1 kts 162°
2026-04-21 19:08 42.89284 -8.42007 1199 ft 0 kts 161°